Weather History for Anchorage, AK

Change the Weather History Date:

Saturday, November 3, 2012

  Actual Average Record
Temperature  
Mean Temperature 28 °F 26 °F  
Max Temperature 31 °F 31 °F 52 °F (1922)
Min Temperature 25 °F 20 °F -7 °F (1975)
Degree Days  
Heating Degree Days 37    
Month to date heating degree days 115  
Since 1 July heating degree days 2158  
Cooling Degree Days 0    
Month to date cooling degree days 0  
Year to date cooling degree days 0  
Moisture  
Dew Point 15 °F    
Average Humidity 59    
Maximum Humidity 68    
Minimum Humidity 49    
Precipitation  
Precipitation 0.00 in 0.04 in 0.69 in (2004)
Month to date precipitation 0.00 0.12  
Year to date precipitation 19.42 14.43  
Snow  
Snow 0.00 in 0.40 in 8.60 in (2004)
Month to date snowfall 0.0 1.0  
Since 1 June snowfall 3.4  
Since 1 July snowfall 3.4 9.3  
Since 1 September snowfall 9.3  
Snow Depth 0.00 in    
Sea Level Pressure  
Sea Level Pressure 29.35 in    
Wind  
Wind Speed 8 mph (NNE)    
Max Wind Speed 12 mph    
Max Gust Speed -    
Visibility 10 miles    
Events      
T = Trace of Precipitation, MM = Missing Value Source: NWS Daily Summary

Daily Weather History Graph

Daily Weather History Graph

Search for Another Location

Airport:

Trip Planner

Search our weather history database for the weather conditions in past years. The results will help you decide how hot, cold, wet, or windy it might be!

Date:

Astronomy

Nov. 03, 2012 Rise Set
Actual Time 9:35 AM AKDT 5:51 PM AKDT
Civil Twilight 8:47 AM AKDT 6:39 PM AKDT
Nautical Twilight 7:55 AM AKDT 7:30 PM AKDT
Astronomical Twilight 7:05 AM AKDT 8:20 PM AKDT
Moon 9:12 PM AKDT (11/3) 2:18 PM AKDT (11/3)
Length of Visible Light 9h 52m
Length of Day
8h 16m
Waning Gibbous, 79% of the Moon is Illuminated
Nov 3
Waning Gibbous
Nov 6
Last Quarter
Nov 13
New
Nov 20
First Quarter
Nov 28
Full

Hourly Weather History & Observations

Time (AKDT) Temp. Windchill Dew Point Humidity Pressure Visibility Wind Dir Wind Speed Gust Speed Precip Events Conditions
12:53 AM 27.0 °F 17.3 °F 14.0 °F 58% 29.36 in 10.0 mi NNW 10.4 mph - N/A   Partly Cloudy
1:53 AM 27.0 °F 18.0 °F 14.0 °F 58% 29.36 in 10.0 mi North 9.2 mph - N/A   Partly Cloudy
2:53 AM 27.0 °F 16.7 °F 15.1 °F 61% 29.35 in 10.0 mi North 11.5 mph - N/A   Scattered Clouds
3:53 AM 27.0 °F 18.7 °F 17.1 °F 66% 29.36 in 10.0 mi North 8.1 mph - N/A   Scattered Clouds
4:53 AM 27.0 °F 18.0 °F 17.1 °F 66% 29.35 in 10.0 mi NNE 9.2 mph - N/A   Mostly Cloudy
5:53 AM 26.1 °F 16.2 °F 16.0 °F 66% 29.34 in 10.0 mi North 10.4 mph - N/A   Mostly Cloudy
6:53 AM 27.0 °F 18.0 °F 15.1 °F 61% 29.34 in 10.0 mi NNE 9.2 mph - N/A   Mostly Cloudy
7:53 AM 27.0 °F 18.0 °F 16.0 °F 63% 29.34 in 10.0 mi North 9.2 mph - N/A   Mostly Cloudy
8:53 AM 26.1 °F 15.6 °F 15.1 °F 63% 29.34 in 10.0 mi NNE 11.5 mph - N/A   Mostly Cloudy
9:53 AM 27.0 °F 18.7 °F 14.0 °F 58% 29.34 in 10.0 mi North 8.1 mph - N/A   Mostly Cloudy
10:53 AM 28.9 °F 21.9 °F 14.0 °F 54% 29.35 in 10.0 mi NNE 6.9 mph - N/A   Mostly Cloudy
11:53 AM 28.9 °F 20.4 °F 12.9 °F 51% 29.35 in 10.0 mi North 9.2 mph - N/A   Mostly Cloudy
12:53 PM 30.0 °F 24.1 °F 14.0 °F 51% 29.35 in 10.0 mi NNE 5.8 mph - N/A   Mostly Cloudy
1:53 PM 30.0 °F 23.2 °F 15.1 °F 54% 29.36 in 10.0 mi North 6.9 mph - N/A   Mostly Cloudy
2:53 PM 30.9 °F 25.2 °F 15.1 °F 52% 29.36 in 10.0 mi North 5.8 mph - N/A   Mostly Cloudy
3:53 PM 30.9 °F 25.2 °F 17.1 °F 57% 29.35 in 10.0 mi NNE 5.8 mph - N/A   Mostly Cloudy
4:53 PM 30.0 °F 24.1 °F 16.0 °F 56% 29.34 in 10.0 mi NE 5.8 mph - N/A   Mostly Cloudy
5:53 PM 26.1 °F 18.4 °F 15.1 °F 63% 29.35 in 10.0 mi ENE 6.9 mph - N/A   Scattered Clouds
6:53 PM 25.0 °F 17.1 °F 16.0 °F 69% 29.35 in 10.0 mi ENE 6.9 mph - N/A   Mostly Cloudy
7:53 PM 27.0 °F 18.7 °F 16.0 °F 63% 29.36 in 10.0 mi East 8.1 mph - N/A   Mostly Cloudy
8:53 PM 27.0 °F 23.0 °F 15.1 °F 61% 29.36 in 10.0 mi NNE 3.5 mph - N/A   Mostly Cloudy
9:53 PM 28.9 °F 21.1 °F 15.1 °F 56% 29.36 in 10.0 mi NNE 8.1 mph - N/A   Mostly Cloudy
10:53 PM 27.0 °F 21.6 °F 17.1 °F 66% 29.37 in 10.0 mi ENE 4.6 mph - N/A   Mostly Cloudy
11:53 PM 28.0 °F 21.7 °F 14.0 °F 56% 29.37 in 10.0 mi North 5.8 mph - N/A   Mostly Cloudy